Location: Sungai Bunut
(2.6333°N, 113.7333°E)
Time: 21:15:23
(UTC+00:00)

Vanguard 1 - Pass Details

Date: 07 December 2023
Orbit: 653 x 3826 km, 34.3° (Epoch: 28 February)

Event Time Altitude Azimuth Distance (km) Brightness Sun altitude
Exits shadow 18:44:22 58° 185° (S) 2,772 12.1 -49.0°
Drops below altitude 10° 18:53:40 10° 141° (SE) 4,093 13.7 -47.0°
Sets 18:56:17 0° 137° (SE) 4,764 14.3 -46.4°
